Regional Weather Roundup
Issued by NWS

Home | Current Version | Previous Version | Graphics & Text | Print | Product List | Glossary On
Versions: 1 2 3 4 5 6 7 8 9 10 11 12 13 14 15 16 17 18 19 20 21 22 23 24 25 26 27 28 29 30 31 32 33 34 35 36 37 38 39 40 41 42 43 44 45 46 47 48 49 50
000
ASUS44 KMEG 281810
RWRTN
TENNESSEE HOURLY STATE WEATHER ROUNDUP
NATIONAL WEATHER SERVICE MEMPHIS TN
100 PM CDT TUE APR 28 2015

TNZ002-004-019-021-049-052-054-088>092-281900-
WEST TENNESSEE

CITY           SKY/WX    TMP DP  RH WIND       PRES   REMARKS
MEMPHIS INTL   CLOUDY    61  44  53 NE12      29.98F
NWS MEMPHIS      N/A     58 N/A N/A MISG        N/A
JACKSON        CLOUDY    62  45  53 N10       29.99F
DYERSBURG      CLOUDY    61  36  39 NE9       30.04S
PARIS          SUNNY     59  41  51 NE12      30.01F
LEXINGTON      SUNNY     63  39  42 N9        29.96F
$$

TNZ008-025-027-028-033-062-065-066-281900-
NORTH MIDDLE TENNESSEE

CITY           SKY/WX    TMP DP  RH WIND       PRES   REMARKS
NASHVILLE      PTSUNNY   65  41  41 VRB5      29.97F
CLARKSVILLE    PTSUNNY   62  40  44 NE12      30.01F
SMYRNA         PTSUNNY   66  42  41 N9        29.97F
COOKEVILLE     SUNNY     66  46  48 NE6       29.93F
CROSSVILLE     MOSUNNY   64  35  34 NW8       29.94F
$$

TNZ061-075-076-078-094-096-097-281900-
SOUTH MIDDLE TENNESSEE

CITY           SKY/WX    TMP DP  RH WIND       PRES   REMARKS
FAYETTEVILLE     N/A     64  41  42 VRB5      29.92F
TULLAHOMA      SUNNY     64  39  39 N6        29.93F
WINCHESTER     SUNNY     68  41  37 CALM      29.91F
MCMINNVILLE    SUNNY     64  43  45 N8        29.93F
COLUMBIA       SUNNY     64  32  29 N9        29.94S
SHELBYVILLE    SUNNY     66  45  45 N9        29.94F
$$

TNZ017-018-042-046-047-281900-
NORTHEAST TENNESSEE

CITY           SKY/WX    TMP DP  RH WIND       PRES   REMARKS
TRI CITIES     SUNNY     61  35  37 VRB3      29.96F
ELIZABETHTON   CLEAR     63  37  39 W10       29.95F
$$

TNZ012-013-036-069-073-074-281900-
CENTRAL EAST TENNESSEE

CITY           SKY/WX    TMP DP  RH WIND       PRES   REMARKS
KNOXVILLE      PTSUNNY   66  41  40 N10       29.93F
OAK RIDGE      MOSUNNY   67  38  34 VRB5      29.95F
GATLINBURG     CLEAR     64  37  36 E6        29.94F
MORRISTOWN     CLEAR     63  37  39 CALM      29.96F
$$

TNZ083-085-099-281900-
SOUTHEAST TENNESSEE

CITY           SKY/WX    TMP DP  RH WIND       PRES   REMARKS
CHATTANOOGA    PTSUNNY   68  42  38 CALM      29.92F
$$

SKY/WX REPORTED AS FAIR MEANS FEW OR NO CLOUDS BELOW
12 THOUSAND FEET.




USA.gov is the U.S. government's official web portal to all federal, state and local government web resources and services.